Regional Weather Roundup
Issued by NWS Charleston, SC

Current Version | Previous Version | Graphics & Text | Print | Product List | Glossary On
Versions: 1 2 3 4 5 6 7 8 9 10 11 12 13 14 15 16 17 18 19 20 21 22 23 24 25 26 27 28 29 30 31 32 33 34 35 36 37 38 39 40 41 42 43 44 45 46 47 48 49 50
855 ASUS42 KCHS 200127 RWRCHS REGIONAL WEATHER ROUNDUP NATIONAL WEATHER SERVICE CHARLESTON SC 800 PM EST THU JAN 19 2017 NOTE: "FAIR" INDICATES FEW OR NO CLOUDS BELOW 12,000 FEET WITH NO SIGNIFICANT WEATHER AND/OR OBSTRUCTIONS TO VISIBILITY. NOT ALL STATIONS ARE QUALITY CONTROLLED. USE DATA WITH CAUTION... ESPECIALLY DEWPOINT OBSERVATIONS. SCZ027-030-031-034>040-042>050-200200- ...SOUTHEAST SOUTH CAROLINA... CITY SKY/WX TMP DP RH WIND PRES REMARKS N CHARLESTON CLEAR 59 52 77 E9 29.99F WATERFRONT PRK N/A 58 56 92 NE6 30.00S MOUNT PLEASANT LGT RAIN 55 54 94 CALM 29.99F JOHNS ISLAND FAIR 57 55 94 NE6 29.97F PINOPOLIS N/A 61 54 77 VRB3 29.90S MONCKS CORNER FAIR 57 50 77 SE6 29.98F SUMMERVILLE FAIR 61 52 72 E3 29.98F BEAUFORT MCAS CLEAR 60 56 86 SE6 29.98F BEAUFORT ARPT FAIR 59 55 88 E3 29.97F HILTON HEAD IS CLOUDY 57 55 94 CALM 29.98F WALTERBORO PTCLDY 59 52 77 SE6 29.98F ALLENDALE FAIR 63 55 77 SE6 29.96R ...SOUTHERN MIDLANDS AND PEE DEE... CITY SKY/WX TMP DP RH WIND PRES REMARKS GEORGETOWN FAIR 48 46 93 CALM 30.02S KINGSTREE FAIR 55 46 71 SE6 29.99F ORANGEBURG MOCLDY 58 51 78 E3 29.96F BARNWELL FAIR 63 54 72 E3 29.97R AIKEN FAIR 61 46 59 E6 29.99R MANNING FAIR 54 41 62 CALM 29.98F COLUMBIA MOCLDY 60 46 59 CALM 29.96F SUMTER CLOUDY 53 45 76 CALM 29.95F FLORENCE CLEAR 55 45 68 E5 29.99F MYRTLE BEACH NOT AVBL N MYRTLE BEACH PTCLDY 54 51 90 E7 30.00F $$ GAZ063-065-086>088-099>101-113>116-118-119-134>141-150-200200- ...SOUTHEAST GEORGIA... CITY SKY/WX TMP DP RH WIND PRES REMARKS SAVANNAH ARPT PTCLDY 59 55 87 SE9 29.97F HUNTER AAF CLEAR 57 57 100 E7 29.95F FORT STEWART PTCLDY 60 55 81 E3 29.94F STATESBORO PTCLDY 64 57 79 SE3 29.96R SYLVANIA CLOUDY N/A N/A N/A SE3 29.97R CLAXTON FAIR N/A N/A N/A E3 29.95S ...CSRA...CENTRAL AND FAR SOUTHEAST GEORGIA... CITY SKY/WX TMP DP RH WIND PRES REMARKS THOMSON CLOUDY 61 52 73 CALM 29.99R AUGUSTA-BUSH CLOUDY 65 49 56 SE3 29.95R AUGUSTA-DANIEL CLOUDY 66 47 50 E6 29.96R SWAINSBORO FAIR 64 57 77 S3 29.95S VIDALIA MOCLDY 66 63 88 SE3 29.95S EASTMAN FAIR 66 53 62 CALM 29.96R HAZLEHURST FAIR 68 63 83 S3 29.94R ALMA MOCLDY 62 61 96 CALM 29.94R WAYCROSS PTCLDY 68 67 98 S3 29.95R JESUP MOCLDY 66 59 77 S3 29.95S BAXLEY FAIR 66 64 94 CALM 29.94S BRUNSWICK CLEAR 64 61 88 S3 29.96F SAINT SIMONS CLEAR 63 59 87 SE7 29.96F $$ SCZ027-028-034-036>038-045-046-048>050-GAZ119-141-200200- ...LAKE AND SUPPLEMENTAL COASTAL OBSERVATIONS... STATION/POSITION TIME TEMP WIND PRES WAVE SWELL AIR SEA DIR/SP/G HT/PER HT/PER/DIR (UTC) (F) (DEG/KT/KT) (MB) (FT/S) (FT/S/D) WINYAH BAY 0045 54 50/ 2 1016.0S LAKE MURRAY 0020 58 CALM / 1 1014.2 ACE BASIN NERRS 0045 59 60/ 1 1016.0S FORT PULASKI 0100 58 58 100/ 6/ 7 1015.2 SAPELO ISLAND 0100 62 100/ 6 1014.0 $$ ANZ835-935-AMZ111-154-330-350-352-354-370-450-454-472-200200- ...C-MAN AND BUOY OBSERVATIONS... STATION/POSITION TIME TEMP WIND PRES WAVE SWELL AIR SEA DIR/SP/G HT/PER HT/PER/DIR (UTC) (F) (DEG/KT/KT) (MB) (FT/S) (FT/S/D) BUOY 41004 2350 68 71 60/ 12/ 16 1015.2 3/ 5 2/ 70/10 BUOY 41008 2350 61 61 90/ 6/ 6 1015.4 1 FOLLY BEACH CMAN 0000 57 50/ 10/ 12 1016.4S CAPERS NEARSHORE 0108 56 55 60/ 8/ 10 1015.5F FRIPP NEARSHORE 0108 58 57 70/ 10/ 12 1014.9F STATION/POSITION TIME TEMP WIND PRES WAVE SWELL AIR SEA DIR/SP/G HT/PER HT/PER/DIR (UTC) (F) (DEG/KT/KT) (MB) (FT/S) (FT/S/D) 5E ST. MARYS GA 0100 64 N/A 1 FRYING PAN BUOY 0050 63 70 70/ 10/ 12 1016.1F 3/10 3/ 70/10 BUOY 41025 2350 54 77 20/ 6/ 10 1017.7 5/10 5/ 70/10 CAPE LOOKOUT NC 0000 55 40/ 4/ 6 1016.9R BUOY 41002 2350 67 71 360/ 4/ 8 1016.4 6/10 7/ 30/10 BUOY 41010 NOT AVBL ST AUGUSTINE FL 0000 63 64 170/ 6/ 7 1016.2R $$

USA.gov is the U.S. government's official web portal to all federal, state and local government web resources and services.